NKS4469 KFLL-KATL

Flight info

Callsign NKS4469
Flight time N/A
Altitude 38000
Route FRSBE2 STYMY Q77 MJAMS/N0472F390 Q77 SHRKS/N0469F380 LAIRI LARZZ JJEDI4
Aircraft MD11/H-SDE1E2E3FGHIJ2J3J4J5M1RWXY/LB1D1

Departure

Time 2026-05-03 22:10
Airport Fort Lauderdale Hollywood International Airport (KFLL)

Arrival

Time N/A
Airport Hartsfield Jackson Atlanta International Airport (KATL)
Time Latitude Longitude Altitude Speed Heading
2026-05-03 21:09 26.07405 -80.14290 30 ft 0 kts 198°
2026-05-03 21:40 26.07413 -80.14287 29 ft 2 kts 198°
2026-05-03 21:41 26.07428 -80.14281 29 ft 2 kts 198°
2026-05-03 21:41 26.07444 -80.14276 29 ft 2 kts 197°
2026-05-03 21:41 26.07459 -80.14269 31 ft 2 kts 217°
2026-05-03 21:41 26.07470 -80.14257 29 ft 2 kts 236°
2026-05-03 21:42 26.07479 -80.14241 29 ft 2 kts 245°
2026-05-03 21:42 26.07484 -80.14225 31 ft 2 kts 260°
2026-05-03 21:42 26.07486 -80.14207 32 ft 2 kts 267°
2026-05-03 21:42 26.07487 -80.14189 32 ft 2 kts 269°
2026-05-03 21:43 26.07487 -80.14171 32 ft 2 kts 269°
2026-05-03 21:43 26.07487 -80.14153 32 ft 2 kts 269°
2026-05-03 21:43 26.07487 -80.14136 31 ft 0 kts 269°
2026-05-03 21:45 26.07487 -80.14148 32 ft 5 kts 269°
2026-05-03 21:45 26.07486 -80.14210 31 ft 11 kts 269°
2026-05-03 21:45 26.07486 -80.14326 31 ft 18 kts 271°
2026-05-03 21:45 26.07488 -80.14479 32 ft 19 kts 270°
2026-05-03 21:46 26.07488 -80.14618 33 ft 14 kts 270°
2026-05-03 21:46 26.07488 -80.14637 33 ft 0 kts 270°
2026-05-03 21:47 26.07488 -80.14638 33 ft 1 kts 270°
2026-05-03 21:47 26.07488 -80.14676 32 ft 9 kts 270°
2026-05-03 21:48 26.07488 -80.14776 30 ft 16 kts 268°
2026-05-03 21:48 26.07459 -80.14921 27 ft 22 kts 237°
2026-05-03 21:48 26.07340 -80.15055 27 ft 23 kts 218°
2026-05-03 21:48 26.07220 -80.15136 28 ft 1 kts 187°
2026-05-03 21:49 26.07201 -80.15135 28 ft 5 kts 174°
2026-05-03 21:49 26.07147 -80.15128 29 ft 10 kts 174°
2026-05-03 21:49 26.07060 -80.15124 31 ft 15 kts 179°
2026-05-03 21:49 26.06997 -80.15160 31 ft 9 kts 241°
2026-05-03 21:50 26.06986 -80.15250 30 ft 13 kts 265°
2026-05-03 21:50 26.06940 -80.15305 31 ft 11 kts 192°
2026-05-03 21:50 26.06851 -80.15302 33 ft 15 kts 185°
2026-05-03 21:50 26.06765 -80.15346 35 ft 13 kts 226°
2026-05-03 21:51 26.06701 -80.15447 33 ft 19 kts 250°
2026-05-03 21:51 26.06696 -80.15607 31 ft 12 kts 270°
2026-05-03 21:51 26.06696 -80.15622 31 ft 0 kts 270°
2026-05-03 21:52 26.06696 -80.15630 31 ft 3 kts 270°
2026-05-03 21:52 26.06696 -80.15655 31 ft 0 kts 270°
2026-05-03 21:52 26.06696 -80.15656 31 ft 0 kts 270°
2026-05-03 21:53 26.06696 -80.15672 31 ft 4 kts 270°
2026-05-03 21:53 26.06696 -80.15720 30 ft 8 kts 270°
2026-05-03 21:53 26.06696 -80.15733 30 ft 0 kts 270°
2026-05-03 22:05 26.06696 -80.15734 30 ft 1 kts 270°
2026-05-03 22:05 26.06697 -80.15755 34 ft 5 kts 270°
2026-05-03 22:05 26.06689 -80.15801 29 ft 2 kts 238°
2026-05-03 22:06 26.06688 -80.15802 29 ft 0 kts 237°
2026-05-03 22:08 26.06685 -80.15806 29 ft 3 kts 229°
2026-05-03 22:08 26.06644 -80.15823 28 ft 10 kts 185°
2026-05-03 22:09 26.06595 -80.15792 28 ft 5 kts 115°
2026-05-03 22:09 26.06594 -80.15779 28 ft 0 kts 96°
2026-05-03 22:09 26.06590 -80.15445 32 ft 89 kts 90°
2026-05-03 22:10 26.06566 -80.13082 666 ft 181 kts 90°
2026-05-03 22:10 26.06550 -80.11737 1763 ft 165 kts 84°
2026-05-03 22:10 26.06908 -80.10624 2943 ft 148 kts 57°
2026-05-03 22:10 26.07517 -80.09544 3613 ft 187 kts 56°
2026-05-03 22:11 26.08346 -80.08180 3934 ft 239 kts 49°
2026-05-03 22:11 26.09747 -80.06953 4189 ft 270 kts 24°
2026-05-03 22:11 26.11495 -80.06123 4927 ft 277 kts 18°
2026-05-03 22:11 26.13319 -80.05373 5699 ft 282 kts 16°
2026-05-03 22:12 26.15231 -80.04902 6453 ft 281 kts 358°
2026-05-03 22:12 26.17161 -80.05192 6943 ft 280 kts 341°
2026-05-03 22:12 26.19017 -80.05840 6993 ft 279 kts 336°
2026-05-03 22:12 26.20800 -80.06672 6995 ft 276 kts 327°
2026-05-03 22:13 26.22300 -80.07961 7020 ft 273 kts 308°
2026-05-03 22:13 26.23254 -80.09741 7802 ft 266 kts 292°
2026-05-03 22:13 26.23974 -80.11642 8544 ft 268 kts 289°
2026-05-03 22:13 26.24653 -80.13583 9256 ft 269 kts 288°
2026-05-03 22:14 26.25431 -80.15488 9921 ft 272 kts 295°
2026-05-03 22:14 26.26398 -80.17363 10214 ft 289 kts 298°
2026-05-03 22:14 26.27465 -80.19304 10381 ft 304 kts 298°
2026-05-03 22:14 26.28591 -80.21310 10874 ft 307 kts 299°
2026-05-03 22:15 26.29745 -80.23356 11393 ft 308 kts 299°
2026-05-03 22:15 26.30891 -80.25390 11844 ft 311 kts 298°
2026-05-03 22:15 26.32028 -80.27407 12199 ft 312 kts 298°
2026-05-03 22:15 26.33186 -80.29466 12562 ft 314 kts 298°
2026-05-03 22:16 26.34358 -80.31553 12903 ft 310 kts 298°
2026-05-03 22:16 26.35467 -80.33515 12969 ft 292 kts 298°
2026-05-03 22:16 26.36532 -80.35408 13002 ft 287 kts 298°
2026-05-03 22:16 26.37588 -80.37292 13004 ft 286 kts 298°
2026-05-03 22:17 26.38644 -80.39178 13003 ft 286 kts 298°
2026-05-03 22:17 26.39720 -80.41109 13066 ft 309 kts 298°
2026-05-03 22:17 26.40914 -80.43264 13216 ft 343 kts 298°
2026-05-03 22:17 26.42207 -80.45587 13840 ft 357 kts 298°
2026-05-03 22:18 26.43532 -80.47951 14730 ft 362 kts 298°
2026-05-03 22:18 26.44875 -80.50344 15624 ft 366 kts 298°
2026-05-03 22:18 26.46303 -80.52722 16460 ft 372 kts 302°
2026-05-03 22:18 26.48034 -80.54911 17344 ft 381 kts 311°
2026-05-03 22:19 26.50175 -80.56723 18195 ft 394 kts 323°
2026-05-03 22:19 26.52695 -80.58031 18863 ft 407 kts 333°
2026-05-03 22:19 26.55428 -80.58985 19504 ft 416 kts 338°
2026-05-03 22:19 26.58253 -80.59813 20120 ft 423 kts 339°
2026-05-03 22:20 26.61120 -80.60630 20156 ft 425 kts 339°
2026-05-03 22:20 26.63985 -80.61463 20146 ft 425 kts 338°
2026-05-03 22:20 26.66841 -80.62321 20140 ft 425 kts 338°
2026-05-03 22:20 26.69697 -80.63202 20390 ft 425 kts 337°
2026-05-03 22:21 26.72555 -80.64074 21168 ft 426 kts 339°
2026-05-03 22:21 26.75461 -80.64735 22149 ft 426 kts 343°
2026-05-03 22:21 26.78422 -80.65113 22896 ft 431 kts 349°
2026-05-03 22:21 26.81497 -80.65269 22655 ft 458 kts 350°
2026-05-03 22:22 26.84710 -80.65478 23162 ft 458 kts 349°
2026-05-03 22:22 26.87846 -80.65600 23747 ft 465 kts 351°
2026-05-03 22:22 26.91072 -80.65652 23695 ft 459 kts 352°
2026-05-03 22:22 26.94301 -80.65608 24209 ft 467 kts 354°
2026-05-03 22:23 26.97574 -80.65530 24561 ft 473 kts 353°
2026-05-03 22:23 27.00874 -80.65487 24841 ft 476 kts 353°
2026-05-03 22:23 27.04198 -80.65418 25050 ft 479 kts 354°
2026-05-03 22:23 27.07523 -80.65329 25136 ft 478 kts 354°
2026-05-03 22:24 27.10866 -80.65231 25096 ft 480 kts 354°
2026-05-03 22:24 27.14203 -80.65135 24985 ft 480 kts 354°
2026-05-03 22:24 27.17474 -80.65053 25534 ft 456 kts 353°
2026-05-03 22:24 27.20618 -80.64958 26513 ft 448 kts 353°
2026-05-03 22:25 27.23697 -80.64849 27180 ft 449 kts 354°
2026-05-03 22:25 27.26854 -80.64687 27930 ft 447 kts 354°
2026-05-03 22:25 27.29901 -80.64484 28783 ft 441 kts 355°
2026-05-03 22:25 27.32935 -80.64249 29715 ft 433 kts 355°
2026-05-03 22:26 27.35902 -80.63997 30634 ft 421 kts 355°
2026-05-03 22:26 27.38765 -80.63738 31589 ft 406 kts 353°
2026-05-03 22:26 27.41545 -80.63486 32452 ft 394 kts 352°
2026-05-03 22:26 27.44243 -80.63256 33210 ft 384 kts 350°
2026-05-03 22:27 27.46881 -80.63059 33860 ft 375 kts 348°
2026-05-03 22:27 27.49479 -80.62889 34183 ft 378 kts 349°
2026-05-03 22:27 27.52150 -80.62621 34261 ft 391 kts 352°
2026-05-03 22:27 27.54828 -80.62489 34368 ft 376 kts 338°
2026-05-03 22:28 27.57253 -80.63186 34491 ft 347 kts 319°
2026-05-03 22:28 27.59167 -80.64641 34610 ft 320 kts 299°
2026-05-03 22:28 27.60456 -80.66586 34737 ft 306 kts 288°
2026-05-03 22:28 27.61488 -80.68691 34855 ft 309 kts 286°
2026-05-03 22:29 27.62513 -80.70853 34961 ft 317 kts 288°
2026-05-03 22:29 27.63688 -80.73009 35084 ft 329 kts 292°
2026-05-03 22:29 27.65081 -80.75113 35206 ft 341 kts 296°
2026-05-03 22:29 27.66662 -80.77166 35330 ft 352 kts 300°
2026-05-03 22:30 27.67789 -80.78504 35406 ft 359 kts 301°
2026-05-03 22:30 27.69586 -80.80513 35530 ft 367 kts 303°
2026-05-03 22:30 27.71464 -80.82517 35648 ft 375 kts 304°
2026-05-03 22:30 27.73402 -80.84533 35775 ft 382 kts 304°
2026-05-03 22:31 27.75386 -80.86571 35891 ft 389 kts 305°
2026-05-03 22:31 27.77411 -80.88638 36058 ft 396 kts 305°
2026-05-03 22:31 27.79475 -80.90742 36183 ft 403 kts 305°
2026-05-03 22:31 27.81575 -80.92882 36317 ft 410 kts 306°
2026-05-03 22:32 27.83710 -80.95058 36442 ft 417 kts 306°
2026-05-03 22:32 27.85879 -80.97271 36580 ft 424 kts 306°
2026-05-03 22:32 27.88088 -80.99526 36692 ft 431 kts 306°
2026-05-03 22:32 27.90327 -81.01811 36855 ft 436 kts 306°
2026-05-03 22:33 27.92582 -81.04108 37175 ft 436 kts 306°
2026-05-03 22:33 27.94836 -81.06403 37545 ft 436 kts 306°
2026-05-03 22:33 27.97085 -81.08695 37911 ft 435 kts 306°
2026-05-03 22:33 27.99334 -81.10993 38035 ft 435 kts 306°
2026-05-03 22:34 28.01584 -81.13278 38063 ft 436 kts 308°
2026-05-03 22:34 28.04065 -81.15335 38079 ft 450 kts 316°
2026-05-03 22:34 28.06855 -81.17041 38081 ft 460 kts 322°
2026-05-03 22:35 28.12756 -81.20004 38103 ft 466 kts 324°
2026-05-03 22:35 28.18658 -81.22898 38087 ft 465 kts 323°
2026-05-03 22:36 28.24548 -81.25895 38093 ft 463 kts 322°
2026-05-03 22:36 28.30408 -81.28932 38089 ft 463 kts 322°
2026-05-03 22:37 28.36269 -81.31973 38072 ft 463 kts 322°
2026-05-03 22:37 28.42146 -81.34998 38082 ft 464 kts 322°
2026-05-03 22:38 28.48038 -81.38024 38082 ft 465 kts 322°
2026-05-03 22:38 28.53931 -81.41054 38082 ft 465 kts 322°
2026-05-03 22:39 28.59823 -81.44088 38082 ft 465 kts 322°
2026-05-03 22:39 28.62773 -81.45609 37959 ft 464 kts 322°
2026-05-03 22:39 28.65715 -81.47127 37966 ft 465 kts 322°
2026-05-03 22:39 28.68665 -81.48651 37810 ft 466 kts 322°
2026-05-03 22:40 28.71622 -81.50178 37669 ft 467 kts 322°
2026-05-03 22:40 28.74578 -81.51706 37464 ft 467 kts 322°
2026-05-03 22:40 28.77530 -81.53234 37255 ft 467 kts 322°
2026-05-03 22:40 28.80500 -81.54770 37057 ft 468 kts 322°
2026-05-03 22:41 28.83464 -81.56304 36863 ft 468 kts 322°
2026-05-03 22:41 28.86428 -81.57840 36656 ft 468 kts 322°
2026-05-03 22:41 28.89391 -81.59374 36463 ft 468 kts 323°
2026-05-03 22:41 28.92464 -81.60735 36265 ft 482 kts 330°
2026-05-03 22:42 28.95798 -81.61564 36068 ft 499 kts 339°
2026-05-03 22:42 28.99284 -81.61967 35937 ft 507 kts 344°
2026-05-03 22:42 29.02820 -81.62182 35747 ft 509 kts 345°
2026-05-03 22:42 29.06360 -81.62360 35556 ft 509 kts 345°
2026-05-03 22:43 29.09890 -81.62568 35362 ft 507 kts 345°
2026-05-03 22:43 29.13409 -81.62822 35192 ft 505 kts 344°
2026-05-03 22:43 29.16915 -81.63114 35126 ft 504 kts 343°
2026-05-03 22:44 29.23907 -81.63756 35112 ft 504 kts 343°
2026-05-03 22:44 29.30899 -81.64414 35126 ft 503 kts 343°
2026-05-03 22:45 29.37867 -81.65061 35119 ft 503 kts 343°
2026-05-03 22:45 29.44794 -81.65702 35115 ft 503 kts 343°
2026-05-03 22:46 29.51782 -81.66351 35119 ft 504 kts 343°
2026-05-03 22:46 29.58779 -81.66998 35136 ft 503 kts 344°
2026-05-03 22:47 29.65747 -81.67641 35119 ft 502 kts 344°
2026-05-03 22:47 29.72703 -81.68290 35125 ft 502 kts 344°
2026-05-03 22:48 29.79663 -81.68941 35124 ft 501 kts 344°
2026-05-03 22:48 29.86616 -81.69590 35160 ft 501 kts 344°
2026-05-03 22:49 29.93563 -81.70237 35121 ft 500 kts 344°
2026-05-03 22:49 30.00499 -81.70886 35118 ft 500 kts 344°
2026-05-03 22:50 30.07433 -81.71536 35120 ft 500 kts 344°
2026-05-03 22:50 30.14376 -81.72187 35166 ft 500 kts 345°
2026-05-03 22:51 30.21316 -81.72838 35121 ft 500 kts 345°
2026-05-03 22:51 30.28256 -81.73490 35138 ft 500 kts 345°
2026-05-03 22:52 30.35155 -81.74140 35138 ft 500 kts 345°
2026-05-03 22:52 30.42138 -81.74798 35110 ft 500 kts 345°
2026-05-03 22:53 30.49030 -81.75449 35110 ft 500 kts 345°
2026-05-03 22:53 30.55968 -81.76106 35110 ft 500 kts 345°
2026-05-03 22:54 30.62856 -81.76945 35116 ft 489 kts 337°
2026-05-03 22:54 30.66064 -81.78025 35121 ft 472 kts 327°
2026-05-03 22:54 30.69009 -81.79589 35126 ft 462 kts 321°
2026-05-03 22:55 30.74629 -81.83186 35161 ft 462 kts 320°
2026-05-03 22:55 30.80290 -81.86731 35160 ft 453 kts 321°
2026-05-03 22:55 30.83035 -81.88353 35123 ft 434 kts 321°
2026-05-03 22:56 30.85717 -81.89925 35124 ft 430 kts 321°
2026-05-03 22:56 30.91048 -81.93062 35125 ft 429 kts 321°
2026-05-03 22:57 30.96372 -81.96195 35148 ft 429 kts 321°
2026-05-03 22:57 31.01704 -81.99331 35159 ft 429 kts 321°
2026-05-03 22:58 31.07037 -82.02467 35121 ft 429 kts 321°
2026-05-03 22:58 31.12369 -82.05606 35113 ft 429 kts 321°
2026-05-03 22:59 31.17700 -82.08748 35114 ft 429 kts 321°
2026-05-03 22:59 31.23028 -82.11893 35113 ft 429 kts 321°
2026-05-03 23:00 31.28365 -82.15047 35162 ft 429 kts 322°
2026-05-03 23:00 31.33700 -82.18206 35112 ft 430 kts 322°
2026-05-03 23:01 31.39038 -82.21370 35111 ft 430 kts 322°
2026-05-03 23:01 31.44340 -82.24528 35109 ft 430 kts 322°
2026-05-03 23:02 31.49676 -82.27705 35109 ft 430 kts 322°
2026-05-03 23:02 31.55016 -82.30883 35109 ft 430 kts 322°
2026-05-03 23:03 31.60351 -82.34061 35114 ft 430 kts 322°
2026-05-03 23:03 31.65665 -82.37259 35105 ft 428 kts 321°
2026-05-03 23:04 31.70966 -82.40480 35132 ft 430 kts 322°
2026-05-03 23:04 31.76306 -82.43632 35111 ft 429 kts 322°
2026-05-03 23:05 31.81628 -82.46787 35108 ft 428 kts 322°
2026-05-03 23:05 31.86913 -82.49944 35122 ft 429 kts 322°
2026-05-03 23:06 31.92235 -82.53137 35102 ft 429 kts 322°
2026-05-03 23:06 31.97492 -82.56419 35101 ft 421 kts 316°
2026-05-03 23:07 32.02015 -82.60594 35102 ft 409 kts 308°
2026-05-03 23:07 32.06256 -82.65064 35103 ft 409 kts 308°
2026-05-03 23:08 32.10517 -82.69526 35102 ft 409 kts 308°
2026-05-03 23:08 32.14800 -82.73948 35124 ft 410 kts 308°
2026-05-03 23:09 32.19080 -82.78349 35119 ft 410 kts 309°
2026-05-03 23:09 32.23392 -82.82787 34811 ft 411 kts 309°
2026-05-03 23:09 32.25560 -82.85021 34416 ft 421 kts 309°
2026-05-03 23:10 32.27825 -82.87384 33678 ft 443 kts 309°
2026-05-03 23:10 32.30164 -82.89813 32828 ft 451 kts 310°
2026-05-03 23:10 32.32541 -82.92262 32049 ft 454 kts 311°
2026-05-03 23:10 32.34905 -82.94693 31380 ft 457 kts 311°
2026-05-03 23:11 32.37310 -82.97169 30777 ft 460 kts 311°
2026-05-03 23:11 32.39725 -82.99657 30180 ft 460 kts 311°
2026-05-03 23:11 32.42129 -83.02129 29525 ft 456 kts 312°
2026-05-03 23:11 32.44519 -83.04585 28952 ft 453 kts 313°
2026-05-03 23:12 32.46890 -83.07024 28368 ft 449 kts 313°
2026-05-03 23:12 32.49240 -83.09442 27717 ft 445 kts 313°
2026-05-03 23:12 32.51566 -83.11837 27125 ft 441 kts 313°
2026-05-03 23:12 32.53871 -83.14215 26540 ft 438 kts 313°
2026-05-03 23:13 32.56156 -83.16575 25996 ft 434 kts 314°
2026-05-03 23:13 32.58428 -83.18924 25435 ft 431 kts 314°
2026-05-03 23:13 32.60679 -83.21258 24878 ft 428 kts 314°
2026-05-03 23:13 32.62911 -83.23576 24288 ft 425 kts 314°
2026-05-03 23:14 32.65125 -83.25877 23720 ft 421 kts 314°
2026-05-03 23:14 32.67322 -83.28159 23061 ft 418 kts 315°
2026-05-03 23:14 32.69504 -83.30427 22456 ft 415 kts 315°
2026-05-03 23:14 32.71668 -83.32677 21892 ft 411 kts 315°
2026-05-03 23:15 32.73810 -83.34906 21321 ft 408 kts 315°
2026-05-03 23:15 32.75941 -83.37123 20766 ft 405 kts 315°
2026-05-03 23:15 32.77338 -83.38578 20402 ft 403 kts 315°
2026-05-03 23:15 32.80149 -83.41508 19669 ft 399 kts 315°
2026-05-03 23:16 32.81530 -83.42948 19338 ft 397 kts 315°
2026-05-03 23:16 32.84273 -83.45810 18867 ft 394 kts 315°
2026-05-03 23:16 32.86322 -83.47949 18704 ft 384 kts 315°
2026-05-03 23:16 32.88268 -83.49975 18599 ft 362 kts 315°
2026-05-03 23:17 32.89539 -83.51300 18526 ft 357 kts 315°
2026-05-03 23:17 32.91995 -83.53871 18332 ft 354 kts 315°
2026-05-03 23:17 32.93244 -83.55181 18115 ft 353 kts 315°
2026-05-03 23:17 32.95083 -83.57113 17634 ft 351 kts 315°
2026-05-03 23:18 32.96907 -83.59031 17043 ft 349 kts 316°
2026-05-03 23:18 32.98717 -83.60932 16473 ft 345 kts 316°
2026-05-03 23:18 33.00490 -83.62794 15931 ft 342 kts 316°
2026-05-03 23:18 33.02271 -83.64663 15373 ft 339 kts 316°
2026-05-03 23:19 33.04035 -83.66514 14836 ft 337 kts 317°
2026-05-03 23:19 33.05786 -83.68352 14310 ft 334 kts 317°
2026-05-03 23:19 33.07528 -83.70180 13792 ft 331 kts 317°
2026-05-03 23:19 33.09251 -83.71990 13214 ft 329 kts 317°
2026-05-03 23:20 33.10974 -83.73805 12501 ft 325 kts 317°
2026-05-03 23:20 33.12610 -83.75530 12169 ft 301 kts 317°
2026-05-03 23:20 33.14123 -83.77128 11877 ft 289 kts 317°
2026-05-03 23:20 33.15612 -83.78705 11611 ft 285 kts 317°
2026-05-03 23:21 33.17092 -83.80274 11360 ft 284 kts 317°
2026-05-03 23:21 33.18567 -83.81840 11089 ft 283 kts 317°
2026-05-03 23:21 33.20005 -83.83437 10716 ft 281 kts 315°
2026-05-03 23:21 33.21397 -83.85074 10271 ft 283 kts 314°
2026-05-03 23:22 33.24146 -83.88360 9364 ft 277 kts 314°
2026-05-03 23:22 33.25506 -83.89954 9061 ft 269 kts 319°
2026-05-03 23:22 33.26997 -83.91305 8983 ft 270 kts 324°
2026-05-03 23:23 33.28552 -83.92565 8788 ft 269 kts 325°
2026-05-03 23:23 33.30099 -83.93808 8572 ft 268 kts 325°
2026-05-03 23:23 33.31641 -83.95061 8379 ft 267 kts 325°
2026-05-03 23:23 33.33168 -83.96314 8180 ft 266 kts 325°
2026-05-03 23:24 33.34674 -83.97561 7943 ft 266 kts 325°
2026-05-03 23:24 33.36192 -83.98824 7693 ft 265 kts 324°
2026-05-03 23:24 33.37699 -84.00084 7444 ft 264 kts 324°
2026-05-03 23:24 33.39207 -84.01348 7206 ft 264 kts 324°
2026-05-03 23:25 33.40709 -84.02610 6975 ft 263 kts 324°
2026-05-03 23:25 33.42193 -84.03858 6741 ft 261 kts 324°
2026-05-03 23:25 33.43677 -84.05108 6499 ft 261 kts 324°
2026-05-03 23:25 33.45158 -84.06356 6246 ft 260 kts 324°
2026-05-03 23:26 33.46637 -84.07603 5984 ft 259 kts 324°
2026-05-03 23:26 33.48108 -84.08845 5718 ft 259 kts 324°
2026-05-03 23:26 33.49563 -84.10073 5381 ft 256 kts 324°
2026-05-03 23:26 33.51025 -84.11308 4997 ft 256 kts 324°
2026-05-03 23:27 33.52450 -84.12511 4614 ft 240 kts 323°
2026-05-03 23:27 33.53763 -84.13621 4215 ft 225 kts 323°
2026-05-03 23:27 33.55021 -84.14685 3843 ft 218 kts 323°
2026-05-03 23:27 33.56252 -84.15727 3473 ft 215 kts 323°
2026-05-03 23:28 33.57467 -84.16757 3118 ft 212 kts 323°
2026-05-03 23:28 33.58674 -84.17780 3017 ft 213 kts 323°
2026-05-03 23:28 33.59881 -84.18804 3002 ft 214 kts 323°
2026-05-03 23:28 33.61095 -84.19834 3005 ft 213 kts 323°
2026-05-03 23:29 33.62238 -84.20958 3002 ft 211 kts 310°
2026-05-03 23:29 33.62907 -84.22488 2983 ft 208 kts 281°
2026-05-03 23:29 33.63060 -84.24218 3000 ft 207 kts 274°
2026-05-03 23:29 33.63147 -84.25855 2983 ft 185 kts 274°
2026-05-03 23:30 33.63186 -84.27373 3012 ft 181 kts 271°
2026-05-03 23:30 33.63181 -84.28852 2999 ft 178 kts 270°
2026-05-03 23:30 33.63178 -84.30341 2934 ft 179 kts 271°
2026-05-03 23:30 33.63177 -84.31839 2689 ft 181 kts 271°
2026-05-03 23:31 33.63176 -84.33343 2426 ft 180 kts 271°
2026-05-03 23:31 33.63175 -84.34795 2181 ft 162 kts 272°
2026-05-03 23:31 33.63175 -84.36063 1963 ft 146 kts 272°
2026-05-03 23:31 33.63176 -84.37255 1806 ft 141 kts 271°
2026-05-03 23:32 33.63177 -84.38423 1593 ft 140 kts 271°
2026-05-03 23:32 33.63184 -84.39599 1416 ft 141 kts 270°
2026-05-03 23:32 33.63192 -84.40867 1276 ft 182 kts 271°
2026-05-03 23:32 33.63107 -84.42313 1972 ft 126 kts 264°
2026-05-03 23:33 33.63013 -84.43169 1691 ft 139 kts 267°